FW6330 Weather Reports


Display with metric or nautical units.
time (UTC)temp
F
wind
direction
speed
MPH
gust
MPH
rain 1hr
in
rain 24hr
in
rain mn
in
humidity
%
barometer
mb
20220528203030 49 214 0.0 6.0 0.00 0.00 0.00 71 1012.5
20220528201529 49 202 0.0 4.0 0.00 0.00 0.00 76 1012.3
20220528200032 49 230 0.0 4.0 0.00 0.00 0.00 72 1012.4
20220528194529 49 198 1.0 4.0 0.00 0.00 0.00 71 1012.4
20220528193024 48 200 0.0 3.0 0.00 0.00 0.00 69 1012.3
20220528191525 48 205 0.0 4.0 0.00 0.00 0.00 77 1012.4
20220528190020 47 205 0.0 3.0 0.00 0.00 0.00 79 1012.2
20220528184518 46 214 0.0 5.0 0.00 0.00 0.00 83 1012.0
20220528183030 46 203 0.0 2.0 0.00 0.00 0.00 85 1012.0
20220528181534 46 209 0.0 1.0 0.00 0.00 0.00 85 1011.9
20220528180013 46 283 0.0 3.0 0.00 0.00 0.00 89 1011.9
20220528174511 45 197 0.0 1.0 0.00 0.00 0.00 88 1011.8
20220528173010 44 205 0.0 1.0 0.00 0.00 0.00 88 1011.8
20220528171513 44 201 0.0 2.0 0.00 0.00 0.00 90 1011.7
20220528170007 43 207 0.0 1.0 0.00 0.00 0.00 90 1011.7
20220528164507 42 202 0.0 0.0 0.00 0.00 0.00 91 1011.8
20220528163007 41 199 0.0 1.0 0.00 0.00 0.00 90 1011.8
20220528161508 41 201 0.0 2.0 0.00 0.00 0.00 91 1011.8
20220528160005 41 210 0.0 0.0 0.00 0.00 0.00 92 1011.8
20220528154507 41 209 0.0 1.0 0.00 0.00 0.00 91 1011.7
20220528153005 40 347 0.0 1.0 0.00 0.00 0.00 91 1011.8
20220528151508 40 107 0.0 1.0 0.00 0.00 0.00 91 1011.7
20220528150003 40 65 0.0 1.0 0.00 0.00 0.00 91 1011.7
20220528144502 39 65 0.0 0.0 0.00 0.00 0.00 91 1011.7
20220528143003 39 55 0.0 2.0 0.00 0.00 0.00 91 1011.7
20220528141601 39 155 0.0 0.0 0.00 0.00 0.00 91 1011.7
20220528140102 39 154 0.0 0.0 0.00 0.00 0.00 91 1011.7
20220528134600 38 154 0.0 0.0 0.00 0.00 0.00 91 1011.8
20220528133135 38 154 0.0 0.0 0.00 0.00 0.00 91 1011.8
20220528131558 38 115 0.0 0.0 0.00 0.00 0.00 89 1011.9
20220528130101 39 212 0.0 1.0 0.00 0.00 0.00 89 1012.0
20220528124556 39 156 0.0 0.0 0.00 0.00 0.00 88 1011.7
20220528123106 39 199 0.0 1.0 0.00 0.00 0.00 88 1011.6
20220528121602 39 80 0.0 1.0 0.00 0.00 0.00 88 1011.7
20220528120056 40 217 0.0 1.0 0.00 0.00 0.00 88 1011.7
20220528114552 40 218 0.0 1.0 0.00 0.00 0.00 88 1011.5
20220528113050 41 199 0.0 1.0 0.00 0.00 0.00 86 1011.5
20220528111550 41 51 0.0 1.0 0.00 0.00 0.00 87 1011.3
20220528110054 41 117 0.0 0.0 0.00 0.00 0.00 86 1011.5
20220528104551 42 203 0.0 0.0 0.00 0.00 0.00 85 1011.2
20220528103053 42 198 0.0 0.0 0.00 0.00 0.00 83 1011.6
20220528101559 43 198 0.0 1.0 0.00 0.00 0.00 78 1011.8
20220528100042 43 176 0.0 1.0 0.00 0.00 0.00 76 1012.0
20220528094554 44 107 0.0 0.0 0.00 0.00 0.00 75 1012.1
20220528093049 44 107 0.0 0.0 0.00 0.00 0.00 76 1011.9
20220528091541 44 107 0.0 1.0 0.00 0.00 0.00 77 1012.2
20220528090045 43 107 0.0 1.0 0.00 0.00 0.00 77 1012.3
20220528084550 44 107 0.0 1.0 0.00 0.00 0.00 79 1012.5
20220528083035 43 107 0.0 1.0 0.00 0.00 0.00 81 1012.9
20220528081535 42 206 0.0 0.0 0.00 0.00 0.00 82 1013.0
20220528080030 42 205 0.0 0.0 0.00 0.00 0.00 82 1013.0
20220528074530 42 206 0.0 0.0 0.00 0.00 0.00 82 1013.2
20220528073026 41 205 0.0 0.0 0.00 0.00 0.00 83 1013.4
20220528071523 40 206 0.0 0.0 0.00 0.00 0.00 82 1013.4
20220528070021 40 206 0.0 0.0 0.00 0.00 0.00 83 1013.5
20220528064529 40 206 0.0 0.0 0.00 0.00 0.00 83 1013.8
20220528063021 40 206 0.0 0.0 0.00 0.00 0.00 85 1013.9
20220528061519 41 206 0.0 0.0 0.00 0.00 0.00 86 1013.8
20220528060024 41 206 0.0 0.0 0.00 0.00 0.00 87 1013.9
20220528054519 42 205 0.0 0.0 0.00 0.00 0.00 87 1014.0
20220528053021 42 206 0.0 0.0 0.00 0.00 0.00 87 1014.2
20220528051520 42 206 0.0 0.0 0.00 0.00 0.00 87 1014.0
20220528050024 43 205 0.0 0.0 0.00 0.00 0.00 86 1014.1
20220528044516 43 206 0.0 0.0 0.00 0.00 0.00 84 1013.9
20220528043016 44 206 0.0 0.0 0.00 0.00 0.00 83 1013.9
20220528041518 45 206 0.0 0.0 0.00 0.00 0.00 81 1013.7
20220528040018 46 205 0.0 0.0 0.00 0.00 0.00 79 1013.9
20220528034514 47 206 0.0 1.0 0.00 0.00 0.00 79 1013.9
20220528033016 48 205 0.0 0.0 0.00 0.00 0.00 73 1013.9
20220528031513 49 201 0.0 1.0 0.00 0.00 0.00 71 1013.8
20220528030013 49 195 0.0 0.0 0.00 0.00 0.00 71 1013.8
20220528024514 50 192 0.0 0.0 0.00 0.00 0.00 68 1013.9
20220528023011 51 198 0.0 4.0 0.00 0.00 0.00 66 1013.7
20220528021511 52 198 0.0 2.0 0.00 0.00 0.00 64 1013.5
20220528020015 53 207 0.0 3.0 0.00 0.00 0.00 64 1013.4
20220528014516 54 229 0.0 4.0 0.00 0.00 0.00 65 1013.5
20220528013008 54 191 1.0 7.0 0.00 0.00 0.00 64 1013.3
20220528011508 55 199 0.0 5.0 0.00 0.00 0.00 61 1013.5
20220528010010 56 204 0.0 4.0 0.00 0.00 0.00 62 1013.6
20220528004507 57 204 1.0 5.0 0.00 0.00 0.00 61 1013.6
20220528003008 57 192 1.0 7.0 0.00 0.00 0.00 58 1013.7
20220528001506 58 112 0.0 4.0 0.00 0.00 0.00 57 1013.7
20220528000005 58 219 0.0 7.0 0.00 0.00 0.00 54 1013.7
20220527234513 59 357 0.0 5.0 0.00 0.00 0.00 50 1013.7
20220527233009 59 167 0.0 8.0 0.00 0.00 0.00 48 1013.8
20220527231504 60 202 1.0 4.0 0.00 0.00 0.00 45 1014.0
20220527230003 61 222 1.0 5.0 0.00 0.00 0.00 43 1014.1
20220527224503 62 200 1.0 8.0 0.00 0.00 0.00 41 1014.1
20220527223006 62 330 1.0 9.0 0.00 0.00 0.00 42 1014.1
20220527221502 63 199 1.0 6.0 0.00 0.00 0.00 40 1014.0
20220527220000 62 68 0.0 6.0 0.00 0.00 0.00 41 1013.9
20220527214606 63 203 0.0 7.0 0.00 0.00 0.00 40 1013.9
20220527213104 62 215 2.0 9.0 0.00 0.00 0.00 38 1014.1
20220527211559 63 204 2.0 6.0 0.00 0.00 0.00 37 1014.0
20220527210108 63 218 0.0 6.0 0.00 0.00 0.00 38 1014.1
20220527204559 62 200 2.0 7.0 0.00 0.00 0.00 37 1014.2
20220527204534 63 207 2.0 7.0 0.00 0.00 0.00 37 1014.2